Volver al catálogo

DELTA 1 DEB

ActivoLEO
NORAD 18470·DEBRIS·🇺🇸 United States

Lanzado Nov 6, 1973 desde Vandenberg Space Force Base

Loading…

Próximos Pases (próximas 24 horas)

TLE

ActualizadoSource: Space-Track

Época: Sep 14, 2026, 08:54 UTC

1 18470U 73086GU  26257.37099823 -.00000242  00000-0 -21976-2 0  9994
2 18470 101.7989  42.9941 0180246 295.3231  89.5673 12.06647181830164

Sigue DELTA 1 DEB en tiempo real con AllMySat

Download on the App Store